JAL121 RJTT-KJFK

Flight info

Callsign JAL121
Flight time N/A
Altitude 31000
Route INUBO Y808 NOLAX Y812 ADNAP R591 ADGOR AGEDI/N0487F330 CUTEE DCT 48N170E 50N180E 53N170W DCT HBT/N0484F350 DCT 57N150W 58N140W 57N130W DCT YQU DCT YZU DCT WAINN/N0481F370 DCT YSR DCT YOUNG Q908 KOBID DCT YWI DCT INL DCT KP18I DCT KP06O DCT KP90Q DCT JHW Q476 WLKES PUCKY1
Aircraft B77W/H-SDE1E2E3FGHIJ2J3J4J5M1RWXY/LB1D1

Departure

Time N/A
Airport Tokyo Haneda International Airport (RJTT)

Arrival

Time 2026-05-07 01:29
Airport John F. Kennedy International Airport (KJFK)
Time Latitude Longitude Altitude Speed Heading
2026-05-07 00:24 43.09806 -80.54543 37013 ft 425 kts 131°
2026-05-07 00:24 43.05866 -80.48336 37019 ft 439 kts 131°
2026-05-07 00:25 43.01793 -80.41937 37017 ft 453 kts 131°
2026-05-07 00:25 42.97591 -80.35346 37021 ft 466 kts 131°
2026-05-07 00:26 42.93269 -80.28584 37016 ft 478 kts 131°
2026-05-07 00:26 42.88870 -80.21717 37012 ft 488 kts 131°
2026-05-07 00:27 42.84365 -80.14702 37003 ft 492 kts 131°
2026-05-07 00:27 42.79859 -80.07703 36987 ft 488 kts 131°
2026-05-07 00:28 42.75446 -80.00863 36993 ft 481 kts 131°
2026-05-07 00:28 42.71019 -79.94018 37003 ft 482 kts 131°
2026-05-07 00:29 42.66587 -79.87180 37002 ft 483 kts 131°
2026-05-07 00:30 42.57725 -79.73438 37002 ft 484 kts 130°
2026-05-07 00:30 42.53352 -79.66450 37002 ft 485 kts 130°
2026-05-07 00:31 42.48975 -79.59472 37001 ft 486 kts 130°
2026-05-07 00:31 42.44582 -79.52513 37001 ft 486 kts 130°
2026-05-07 00:32 42.40179 -79.45564 37001 ft 486 kts 130°
2026-05-07 00:32 42.35805 -79.38676 36998 ft 486 kts 131°
2026-05-07 00:33 42.31390 -79.31737 37003 ft 486 kts 131°
2026-05-07 00:33 42.26975 -79.24814 37001 ft 487 kts 131°
2026-05-07 00:34 42.22538 -79.17870 36999 ft 487 kts 130°
2026-05-07 00:34 42.18748 -79.10314 37010 ft 487 kts 118°
2026-05-07 00:35 42.16174 -79.01946 37007 ft 487 kts 108°
2026-05-07 00:35 42.14069 -78.93262 37005 ft 487 kts 108°
2026-05-07 00:36 42.11957 -78.84577 37000 ft 488 kts 108°
2026-05-07 00:36 42.09796 -78.75915 37001 ft 487 kts 109°
2026-05-07 00:37 42.07608 -78.67259 36999 ft 488 kts 109°
2026-05-07 00:37 42.05415 -78.58622 37001 ft 488 kts 109°
2026-05-07 00:38 42.03233 -78.50051 36997 ft 487 kts 109°
2026-05-07 00:38 42.01034 -78.41436 37000 ft 487 kts 109°
2026-05-07 00:39 41.98830 -78.32834 37001 ft 486 kts 109°
2026-05-07 00:39 41.96621 -78.24244 37001 ft 485 kts 109°
2026-05-07 00:40 41.94413 -78.15686 37002 ft 484 kts 109°
2026-05-07 00:40 41.92201 -78.07148 36996 ft 484 kts 109°
2026-05-07 00:41 41.89986 -77.98621 37001 ft 484 kts 109°
2026-05-07 00:41 41.87762 -77.90087 37002 ft 484 kts 109°
2026-05-07 00:42 41.85529 -77.81560 37003 ft 485 kts 109°
2026-05-07 00:42 41.83300 -77.73088 36998 ft 484 kts 109°
2026-05-07 00:43 41.81058 -77.64595 36999 ft 483 kts 109°
2026-05-07 00:43 41.78799 -77.56060 37001 ft 482 kts 109°
2026-05-07 00:44 41.76570 -77.47665 36998 ft 481 kts 109°
2026-05-07 00:44 41.74324 -77.39238 37001 ft 479 kts 110°
2026-05-07 00:45 41.72076 -77.30830 36855 ft 481 kts 110°
2026-05-07 00:45 41.70947 -77.26619 36538 ft 476 kts 110°
2026-05-07 00:45 41.69838 -77.22484 36338 ft 466 kts 110°
2026-05-07 00:46 41.68748 -77.18432 36122 ft 460 kts 110°
2026-05-07 00:46 41.67666 -77.14416 35934 ft 461 kts 110°
2026-05-07 00:46 41.66575 -77.10373 35663 ft 473 kts 110°
2026-05-07 00:46 41.65445 -77.06198 35369 ft 478 kts 110°
2026-05-07 00:47 41.64313 -77.02017 35054 ft 477 kts 110°
2026-05-07 00:47 41.63180 -76.97841 34757 ft 477 kts 110°
2026-05-07 00:47 41.62046 -76.93667 34466 ft 476 kts 110°
2026-05-07 00:47 41.60918 -76.89522 34169 ft 474 kts 110°
2026-05-07 00:48 41.59791 -76.85383 33875 ft 473 kts 110°
2026-05-07 00:48 41.58668 -76.81271 33578 ft 471 kts 110°
2026-05-07 00:48 41.57560 -76.77216 33292 ft 468 kts 110°
2026-05-07 00:48 41.56444 -76.73142 33006 ft 466 kts 110°
2026-05-07 00:49 41.55333 -76.69089 32709 ft 463 kts 110°
2026-05-07 00:49 41.54228 -76.65070 32431 ft 459 kts 110°
2026-05-07 00:49 41.53132 -76.61085 32163 ft 456 kts 110°
2026-05-07 00:49 41.52039 -76.57121 31876 ft 453 kts 110°
2026-05-07 00:50 41.50951 -76.53179 31592 ft 450 kts 110°
2026-05-07 00:50 41.49872 -76.49276 31302 ft 447 kts 110°
2026-05-07 00:50 41.48797 -76.45395 31045 ft 444 kts 110°
2026-05-07 00:50 41.47729 -76.41543 30766 ft 442 kts 110°
2026-05-07 00:51 41.46664 -76.37707 30494 ft 440 kts 110°
2026-05-07 00:51 41.45613 -76.33926 30227 ft 438 kts 110°
2026-05-07 00:51 41.44553 -76.30123 29961 ft 437 kts 110°
2026-05-07 00:51 41.43496 -76.26333 29697 ft 435 kts 110°
2026-05-07 00:52 41.42796 -76.23829 29510 ft 435 kts 110°
2026-05-07 00:52 41.41743 -76.20062 29245 ft 433 kts 110°
2026-05-07 00:52 41.40691 -76.16306 28987 ft 432 kts 110°
2026-05-07 00:52 41.39641 -76.12563 28719 ft 431 kts 110°
2026-05-07 00:53 41.38589 -76.08818 28449 ft 430 kts 110°
2026-05-07 00:53 41.37541 -76.05095 28180 ft 428 kts 110°
2026-05-07 00:53 41.36492 -76.01371 27927 ft 427 kts 110°
2026-05-07 00:53 41.35448 -75.97671 27659 ft 425 kts 110°
2026-05-07 00:54 41.34411 -75.94000 27392 ft 424 kts 110°
2026-05-07 00:54 41.33373 -75.90333 27128 ft 422 kts 110°
2026-05-07 00:54 41.32340 -75.86684 26878 ft 420 kts 111°
2026-05-07 00:54 41.31310 -75.83055 26619 ft 418 kts 111°
2026-05-07 00:55 41.30297 -75.79488 26353 ft 416 kts 111°
2026-05-07 00:55 41.29273 -75.75888 26095 ft 414 kts 111°
2026-05-07 00:55 41.28254 -75.72310 25845 ft 412 kts 111°
2026-05-07 00:55 41.27235 -75.68748 25584 ft 410 kts 111°
2026-05-07 00:56 41.26145 -75.65253 25328 ft 409 kts 114°
2026-05-07 00:56 41.24985 -75.61806 25082 ft 407 kts 114°
2026-05-07 00:56 41.23815 -75.58395 24830 ft 405 kts 115°
2026-05-07 00:56 41.22651 -75.54992 24573 ft 404 kts 114°
2026-05-07 00:57 41.21498 -75.51592 24333 ft 402 kts 114°
2026-05-07 00:57 41.20357 -75.48209 24093 ft 401 kts 114°
2026-05-07 00:57 41.19220 -75.44825 23839 ft 400 kts 114°
2026-05-07 00:57 41.18087 -75.41451 23587 ft 399 kts 114°
2026-05-07 00:58 41.16973 -75.38137 23351 ft 397 kts 114°
2026-05-07 00:58 41.15846 -75.34791 23107 ft 396 kts 114°
2026-05-07 00:58 41.14715 -75.31439 22779 ft 401 kts 114°
2026-05-07 00:58 41.13533 -75.27937 22376 ft 429 kts 114°
2026-05-07 00:59 41.11070 -75.20647 21468 ft 431 kts 114°
2026-05-07 00:59 41.09846 -75.17031 21028 ft 429 kts 114°
2026-05-07 00:59 41.08624 -75.13422 20686 ft 428 kts 114°
2026-05-07 01:00 41.07411 -75.09849 20423 ft 425 kts 114°
2026-05-07 01:00 41.06199 -75.06285 20179 ft 421 kts 114°
2026-05-07 01:00 41.05015 -75.02810 20067 ft 417 kts 114°
2026-05-07 01:00 41.03824 -74.99317 19930 ft 416 kts 114°
2026-05-07 01:01 41.02631 -74.95818 19573 ft 416 kts 114°
2026-05-07 01:01 41.01439 -74.92326 19205 ft 416 kts 114°
2026-05-07 01:01 41.00260 -74.88880 19051 ft 403 kts 114°
2026-05-07 01:01 40.99288 -74.85495 18997 ft 386 kts 103°
2026-05-07 01:02 40.98833 -74.82071 18994 ft 370 kts 98°
2026-05-07 01:02 40.98491 -74.78763 18982 ft 355 kts 97°
2026-05-07 01:02 40.98165 -74.75516 18996 ft 358 kts 97°
2026-05-07 01:02 40.97824 -74.72252 18995 ft 358 kts 98°
2026-05-07 01:03 40.97468 -74.68991 18997 ft 357 kts 98°
2026-05-07 01:03 40.97101 -74.65746 18996 ft 355 kts 98°
2026-05-07 01:03 40.96728 -74.62513 18997 ft 354 kts 99°
2026-05-07 01:03 40.96351 -74.59291 19002 ft 354 kts 99°
2026-05-07 01:04 40.95973 -74.56086 19004 ft 353 kts 99°
2026-05-07 01:04 40.95593 -74.52877 19000 ft 352 kts 99°
2026-05-07 01:04 40.95216 -74.49713 18986 ft 344 kts 99°
2026-05-07 01:04 40.94847 -74.46627 18981 ft 335 kts 99°
2026-05-07 01:05 40.94485 -74.43597 18991 ft 333 kts 99°
2026-05-07 01:05 40.94122 -74.40572 18993 ft 332 kts 99°
2026-05-07 01:05 40.93759 -74.37551 19000 ft 332 kts 99°
2026-05-07 01:05 40.93397 -74.34538 19004 ft 332 kts 99°
2026-05-07 01:06 40.93032 -74.31520 19003 ft 332 kts 99°
2026-05-07 01:06 40.92668 -74.28502 19001 ft 332 kts 99°
2026-05-07 01:06 40.92302 -74.25486 19004 ft 332 kts 99°
2026-05-07 01:06 40.91936 -74.22467 19002 ft 332 kts 99°
2026-05-07 01:07 40.91570 -74.19452 19002 ft 333 kts 99°
2026-05-07 01:07 40.91206 -74.16472 19002 ft 333 kts 99°
2026-05-07 01:07 40.90832 -74.13453 19000 ft 331 kts 101°
2026-05-07 01:07 40.90071 -74.10607 18997 ft 328 kts 121°
2026-05-07 01:08 40.88694 -74.08232 18998 ft 329 kts 140°
2026-05-07 01:08 40.86739 -74.06684 18880 ft 330 kts 159°
2026-05-07 01:08 40.84540 -74.05764 18577 ft 332 kts 165°
2026-05-07 01:08 40.82295 -74.05017 18173 ft 334 kts 167°
2026-05-07 01:09 40.80039 -74.04310 17785 ft 333 kts 167°
2026-05-07 01:09 40.77780 -74.03613 17383 ft 332 kts 167°
2026-05-07 01:09 40.75527 -74.02924 16986 ft 331 kts 167°
2026-05-07 01:09 40.73288 -74.02244 16584 ft 330 kts 167°
2026-05-07 01:10 40.71046 -74.01565 16178 ft 330 kts 167°
2026-05-07 01:10 40.68811 -74.00889 15795 ft 329 kts 167°
2026-05-07 01:10 40.66585 -74.00217 15396 ft 328 kts 167°
2026-05-07 01:10 40.64387 -73.99555 15004 ft 328 kts 167°
2026-05-07 01:11 40.62181 -73.98891 14539 ft 321 kts 167°
2026-05-07 01:11 40.60028 -73.98243 14063 ft 312 kts 167°
2026-05-07 01:11 40.57939 -73.97613 13608 ft 304 kts 167°
2026-05-07 01:11 40.55906 -73.97001 13237 ft 294 kts 167°
2026-05-07 01:12 40.53974 -73.96418 13133 ft 279 kts 167°
2026-05-07 01:12 40.52071 -73.95844 13144 ft 280 kts 167°
2026-05-07 01:12 40.50196 -73.95278 13126 ft 272 kts 167°
2026-05-07 01:12 40.48369 -73.94726 13126 ft 268 kts 167°
2026-05-07 01:13 40.46570 -73.94117 13131 ft 267 kts 161°
2026-05-07 01:13 40.44825 -73.93251 13146 ft 269 kts 158°
2026-05-07 01:13 40.43091 -73.92311 13149 ft 271 kts 158°
2026-05-07 01:13 40.41349 -73.91355 13151 ft 272 kts 158°
2026-05-07 01:14 40.39650 -73.90269 13135 ft 272 kts 142°
2026-05-07 01:14 40.38439 -73.88404 13136 ft 270 kts 115°
2026-05-07 01:14 40.37646 -73.86149 12930 ft 275 kts 116°
2026-05-07 01:14 40.36808 -73.83894 12593 ft 273 kts 116°
2026-05-07 01:15 40.35974 -73.81679 12262 ft 269 kts 116°
2026-05-07 01:15 40.35172 -73.79555 11934 ft 264 kts 116°
2026-05-07 01:15 40.34354 -73.77389 11595 ft 261 kts 116°
2026-05-07 01:15 40.33586 -73.75352 11287 ft 260 kts 116°
2026-05-07 01:16 40.32787 -73.73233 10961 ft 258 kts 116°
2026-05-07 01:16 40.32008 -73.71121 10634 ft 257 kts 115°
2026-05-07 01:16 40.31455 -73.68915 10281 ft 256 kts 93°
2026-05-07 01:16 40.31749 -73.66652 9970 ft 252 kts 62°
2026-05-07 01:17 40.32857 -73.64915 9708 ft 252 kts 36°
2026-05-07 01:17 40.34343 -73.63660 9477 ft 256 kts 30°
2026-05-07 01:17 40.35900 -73.62497 9196 ft 257 kts 28°
2026-05-07 01:17 40.37460 -73.61353 8862 ft 257 kts 28°
2026-05-07 01:18 40.38999 -73.60231 8538 ft 256 kts 28°
2026-05-07 01:18 40.40553 -73.59103 8239 ft 253 kts 28°
2026-05-07 01:18 40.42093 -73.57988 7934 ft 251 kts 28°
2026-05-07 01:18 40.43619 -73.56885 7630 ft 249 kts 28°
2026-05-07 01:19 40.45130 -73.55793 7334 ft 247 kts 28°
2026-05-07 01:19 40.46620 -73.54718 7098 ft 242 kts 28°
2026-05-07 01:19 40.48183 -73.54009 6839 ft 239 kts
2026-05-07 01:19 40.49852 -73.54015 6664 ft 241 kts 358°
2026-05-07 01:20 40.51541 -73.54086 6435 ft 243 kts 357°
2026-05-07 01:20 40.53236 -73.54162 6209 ft 242 kts 357°
2026-05-07 01:20 40.54901 -73.54240 6005 ft 245 kts 357°
2026-05-07 01:20 40.56615 -73.54324 5792 ft 246 kts 357°
2026-05-07 01:21 40.58315 -73.54407 5559 ft 242 kts 357°
2026-05-07 01:21 40.59989 -73.54490 5317 ft 236 kts 357°
2026-05-07 01:21 40.61590 -73.54569 5081 ft 226 kts 357°
2026-05-07 01:21 40.63140 -73.54644 4813 ft 217 kts 357°
2026-05-07 01:22 40.64626 -73.54716 4565 ft 211 kts 357°
2026-05-07 01:22 40.66079 -73.54786 4266 ft 212 kts 357°
2026-05-07 01:22 40.67583 -73.54863 4033 ft 221 kts 357°
2026-05-07 01:22 40.69126 -73.54940 3786 ft 223 kts 357°
2026-05-07 01:23 40.70676 -73.55017 3534 ft 223 kts 357°
2026-05-07 01:23 40.72222 -73.55096 3265 ft 222 kts 357°
2026-05-07 01:23 40.73761 -73.55174 3033 ft 220 kts 357°
2026-05-07 01:23 40.75268 -73.55323 2842 ft 212 kts 345°
2026-05-07 01:24 40.76520 -73.56305 2580 ft 213 kts 309°
2026-05-07 01:24 40.77295 -73.57962 2399 ft 215 kts 297°
2026-05-07 01:24 40.77964 -73.59742 2218 ft 215 kts 295°
2026-05-07 01:24 40.78598 -73.61510 2166 ft 212 kts 293°
2026-05-07 01:25 40.78846 -73.63398 2146 ft 212 kts 261°
2026-05-07 01:25 40.78198 -73.65126 2164 ft 217 kts 225°
2026-05-07 01:25 40.76932 -73.66114 2145 ft 205 kts 203°
2026-05-07 01:25 40.75666 -73.66845 2128 ft 197 kts 206°
2026-05-07 01:26 40.74452 -73.67694 2134 ft 198 kts 210°
2026-05-07 01:26 40.73266 -73.68623 2031 ft 202 kts 211°
2026-05-07 01:26 40.72061 -73.69569 1767 ft 198 kts 211°
2026-05-07 01:26 40.70892 -73.70492 1477 ft 194 kts 211°
2026-05-07 01:27 40.69743 -73.71392 1213 ft 189 kts 211°
2026-05-07 01:27 40.68653 -73.72249 983 ft 174 kts 211°
2026-05-07 01:27 40.67634 -73.73049 744 ft 166 kts 211°
2026-05-07 01:27 40.66679 -73.73799 529 ft 153 kts 211°
2026-05-07 01:28 40.65818 -73.74496 367 ft 142 kts 212°
2026-05-07 01:28 40.64948 -73.75147 410 ft 147 kts 211°
2026-05-07 01:28 40.64045 -73.75863 49 ft 152 kts 212°
2026-05-07 01:28 40.63247 -73.76483 25 ft 92 kts 208°
2026-05-07 01:29 40.62981 -73.76792 25 ft 38 kts 236°
2026-05-07 01:29 40.62945 -73.76882 23 ft 7 kts 246°
2026-05-07 01:29 40.62934 -73.76947 25 ft 7 kts 269°
2026-05-07 01:29 40.62948 -73.77023 25 ft 14 kts 293°
2026-05-07 01:30 40.63019 -73.77187 24 ft 0 kts 302°
2026-05-07 01:30 40.63043 -73.77234 22 ft 20 kts 303°
2026-05-07 01:30 40.63178 -73.77504 25 ft 45 kts 302°
2026-05-07 01:30 40.63325 -73.77843 26 ft 42 kts 301°
2026-05-07 01:31 40.63473 -73.78165 23 ft 40 kts 301°
2026-05-07 01:31 40.63603 -73.78475 26 ft 37 kts 304°
2026-05-07 01:31 40.63733 -73.78760 25 ft 35 kts 297°
2026-05-07 01:31 40.63859 -73.79027 23 ft 33 kts 298°
2026-05-07 01:32 40.63976 -73.79283 22 ft 32 kts 300°
2026-05-07 01:32 40.64111 -73.79494 21 ft 30 kts 342°
2026-05-07 01:32 40.64320 -73.79489 21 ft 30 kts 359°
2026-05-07 01:32 40.64526 -73.79502 20 ft 30 kts 351°
2026-05-07 01:33 40.64709 -73.79622 23 ft 18 kts 334°
2026-05-07 01:33 40.64789 -73.79529 20 ft 18 kts 73°
2026-05-07 01:33 40.64841 -73.79378 22 ft 18 kts 60°
2026-05-07 01:33 40.64902 -73.79232 21 ft 18 kts 62°
2026-05-07 01:34 40.64968 -73.79090 22 ft 18 kts 60°
2026-05-07 01:34 40.65008 -73.79010 23 ft 6 kts 32°
2026-05-07 01:34 40.65046 -73.78989 23 ft 1 kts
2026-05-07 01:34 40.65064 -73.78994 22 ft 6 kts 340°
2026-05-07 01:35 40.65090 -73.79031 20 ft 0 kts 306°